Location: Harburg
(48.7667°N, 10.6667°E)
Time: 05:53:08
(UTC+00:00)

NOSS 2-2 (E) - Pass Details

Date: 18 September 2020
Orbit: 469 x 1737 km, 63.3° (Epoch: 19 October)

Event Time Altitude Azimuth Distance (km) Brightness Sun altitude
Rises 19:12:23 0° 230° (SW) 2,500 7.0 -18.3°
Reaches altitude 10° 19:14:25 10° 234° (SW) 1,641 6.1 -18.6°
Maximum altitude 19:17:54 61° 315° (NW) 584 3.6 -19.1°
Drops below altitude 10° 19:22:00 10° 37° (NE) 1,917 6.0 -19.7°
Sets 19:24:33 0° 41° (NE) 2,977 6.9 -20.1°
